Location: Ch?enovice
(49.7164°N, 15.2160°E)
Time: 19:59:49
(UTC+00:00)

Okean 2 - Pass Details

Date: 23 May 2024
Orbit: 541 x 553 km, 82.5° (Epoch: 21 June)

Event Time Altitude Azimuth Distance (km) Brightness Sun altitude
Exits shadow 00:51:07 28° 223° (SW) 1,047 4.2 -15.1°
Maximum altitude 00:52:54 49° 284° (WNW) 705 3.7 -15.0°
Drops below altitude 10° 00:56:47 10° 0° (N) 1,817 6.9 -14.7°
Sets 00:59:01 0° 6° (N) 2,715 8.2 -14.5°
